Location: Lombard
(41.8800°N, 88.0080°W)
Time: 12:19:17
(UTC-06:00)

Transit 4A - Pass Details

Date: 01 December 2023
Orbit: 870 x 973 km, 66.8° (Epoch: 02 March)

Event Time Altitude Azimuth Distance (km) Brightness Sun altitude
Rises 04:57:50 0° 333° (NNW) 3,607 - -22.2°
Reaches altitude 10° 05:00:33 10° 340° (NNW) 2,643 - -21.7°
Exits shadow 05:01:14 13° 343° (NNW) 2,409 9.8 -21.5°
Maximum altitude 05:06:23 44° 52° (NE) 1,239 8.8 -20.6°
Drops below altitude 10° 05:12:03 10° 124° (SE) 2,561 11.2 -19.6°
Sets 05:14:38 0° 131° (SE) 3,484 12.0 -19.1°
